YF9UAG-16 Weather Reports


Display with metric or nautical units.
time (UTC)temp
F
wind
direction
speed
MPH
gust
MPH
rain 1hr
in
rain 24hr
in
rain mn
in
humidity
%
barometer
mb
20260506071018 87 0 0.0 0.0 0.00 0.00 0.00 60 1006.0
20260506070456 87 0 0.0 0.0 0.00 0.00 0.00 56 1006.0
20260506062200 94 0 0.0 0.0 0.00 0.00 0.00 35 1005.0
20260506061638 97 0 0.0 0.0 0.00 0.00 0.00 33 1005.0
20260506061116 102 0 0.0 0.0 0.00 0.00 0.00 29 1005.0
20260506060554 102 0 0.0 0.0 0.00 0.00 0.00 28 1005.0
20260506051214 101 0 0.0 0.0 0.00 0.00 0.00 33 1006.0
20260506050652 100 0 0.0 0.0 0.00 0.00 0.00 31 1006.0
20260506050130 100 0 0.0 0.0 0.00 0.00 0.00 32 1006.0
20260506045046 98 0 0.0 0.0 0.00 0.00 0.00 37 1006.0
20260506044524 98 0 0.0 0.0 0.00 0.00 0.00 39 1006.0
20260506044002 96 0 0.0 0.0 0.00 0.00 0.00 38 1006.0
20260506043440 97 0 0.0 0.0 0.00 0.00 0.00 41 1006.0
20260506042918 95 0 0.0 0.0 0.00 0.00 0.00 39 1006.0
20260506042356 96 0 0.0 0.0 0.00 0.00 0.00 41 1006.0
20260506041834 93 0 0.0 0.0 0.00 0.00 0.00 45 1006.0
20260506041312 95 0 0.0 0.0 0.00 0.00 0.00 44 1006.0
20260506040750 95 0 0.0 0.0 0.00 0.00 0.00 43 1006.0
20260506040228 94 0 0.0 0.0 0.00 0.00 0.00 48 1007.0
20260506035706 92 0 0.0 0.0 0.00 0.00 0.00 50 1007.0
20260506035144 91 0 0.0 0.0 0.00 0.00 0.00 51 1007.0
20260506034622 89 0 0.0 0.0 0.00 0.00 0.00 55 1007.0
20260506034100 89 0 0.0 0.0 0.00 0.00 0.00 56 1007.0
20260506033538 89 0 0.0 0.0 0.00 0.00 0.00 58 1007.0
20260506033016 87 0 0.0 0.0 0.00 0.00 0.00 57 1007.0
20260506032454 87 0 0.0 0.0 0.00 0.00 0.00 58 1007.0
20260506031932 87 0 0.0 0.0 0.00 0.00 0.00 59 1007.0
20260506031410 86 0 0.0 0.0 0.00 0.00 0.00 57 1007.0
20260506030848 87 0 0.0 0.0 0.00 0.00 0.00 58 1007.0
20260506030326 86 0 0.0 0.0 0.00 0.00 0.00 58 1008.0
20260506025804 85 0 0.0 0.0 0.00 0.00 0.00 59 1008.0
20260506025242 84 0 0.0 0.0 0.00 0.00 0.00 62 1008.0
20260506024720 85 0 0.0 0.0 0.00 0.00 0.00 61 1008.0
20260506024158 83 0 0.0 0.0 0.00 0.00 0.00 62 1008.0
20260506023636 85 0 0.0 0.0 0.00 0.00 0.00 62 1008.0
20260506023114 83 0 0.0 0.0 0.00 0.00 0.00 62 1008.0
20260506022552 84 0 0.0 0.0 0.00 0.00 0.00 63 1008.0
20260506022030 83 0 0.0 0.0 0.00 0.00 0.00 62 1008.0
20260506021508 83 0 0.0 0.0 0.00 0.00 0.00 63 1008.0
20260506020946 82 0 0.0 0.0 0.00 0.00 0.00 64 1008.0
20260506020424 82 0 0.0 0.0 0.00 0.00 0.00 65 1009.0
20260506015902 82 0 0.0 0.0 0.00 0.00 0.00 64 1009.0
20260506015340 82 0 0.0 0.0 0.00 0.00 0.00 63 1009.0
20260506014818 83 0 0.0 0.0 0.00 0.00 0.00 62 1009.0
20260506014256 82 0 0.0 0.0 0.00 0.00 0.00 64 1009.0
20260506013734 83 0 0.0 0.0 0.00 0.00 0.00 65 1009.0
20260506013212 83 0 0.0 0.0 0.00 0.00 0.00 67 1009.0
20260506012650 83 0 0.0 0.0 0.00 0.00 0.00 67 1009.0
20260506012128 83 0 0.0 0.0 0.00 0.00 0.00 67 1009.0
20260506011606 83 0 0.0 0.0 0.00 0.00 0.00 68 1009.0
20260506011044 83 0 0.0 0.0 0.00 0.00 0.00 69 1009.0
20260506010522 83 0 0.0 0.0 0.00 0.00 0.00 69 1010.0
20260506010000 83 0 0.0 0.0 0.00 0.00 0.00 70 1010.0
20260506005438 83 0 0.0 0.0 0.00 0.00 0.00 70 1010.0
20260506004916 83 0 0.0 0.0 0.00 0.00 0.00 69 1010.0
20260506004354 83 0 0.0 0.0 0.00 0.00 0.00 70 1010.0
20260506003832 82 0 0.0 0.0 0.00 0.00 0.00 71 1010.0
20260506003310 83 0 0.0 0.0 0.00 0.00 0.00 70 1010.0
20260506002748 82 0 0.0 0.0 0.00 0.00 0.00 71 1010.0
20260506002226 83 0 0.0 0.0 0.00 0.00 0.00 71 1010.0
20260506001704 82 0 0.0 0.0 0.00 0.00 0.00 72 1010.0
20260506001142 83 0 0.0 0.0 0.00 0.00 0.00 71 1010.0
20260506000620 83 0 0.0 0.0 0.00 0.00 0.00 73 1010.0
20260506000058 84 0 0.0 0.0 0.00 0.00 0.00 74 1011.0
20260505235536 84 0 0.0 0.0 0.00 0.00 0.00 80 1011.0
20260505235014 84 0 0.0 0.0 0.00 0.00 0.00 80 1011.0
20260505234452 83 0 0.0 0.0 0.00 0.00 0.00 78 1011.0
20260505233930 84 0 0.0 0.0 0.00 0.00 0.00 79 1011.0
20260505233408 84 0 0.0 0.0 0.00 0.00 0.00 81 1011.0
20260505232846 84 0 0.0 0.0 0.00 0.00 0.00 79 1011.0
20260505232324 83 0 0.0 0.0 0.00 0.00 0.00 78 1011.0
20260505231802 84 0 0.0 0.0 0.00 0.00 0.00 82 1011.0
20260505231240 83 0 0.0 0.0 0.00 0.00 0.00 80 1011.0
20260505230718 83 0 0.0 0.0 0.00 0.00 0.00 77 1011.0
20260505230156 84 0 0.0 0.0 0.00 0.00 0.00 82 1011.0
20260505225634 83 0 0.0 0.0 0.00 0.00 0.00 83 1011.0
20260505225112 82 0 0.0 0.0 0.00 0.00 0.00 81 1011.0
20260505224550 81 0 0.0 0.0 0.00 0.00 0.00 78 1011.0
20260505224028 82 0 0.0 0.0 0.00 0.00 0.00 86 1011.0
20260505223506 82 0 0.0 0.0 0.00 0.00 0.00 85 1011.0
20260505222944 82 0 0.0 0.0 0.00 0.00 0.00 83 1010.0
20260505222422 81 0 0.0 0.0 0.00 0.00 0.00 81 1010.0
20260505221900 82 0 0.0 0.0 0.00 0.00 0.00 88 1010.0
20260505221338 82 0 0.0 0.0 0.00 0.00 0.00 87 1010.0
20260505220816 82 0 0.0 0.0 0.00 0.00 0.00 86 1010.0
20260505220254 81 0 0.0 0.0 0.00 0.00 0.00 83 1010.0
20260505215732 80 0 0.0 0.0 0.00 0.00 0.00 81 1010.0
20260505215210 82 0 0.0 0.0 0.00 0.00 0.00 86 1010.0
20260505214648 82 0 0.0 0.0 0.00 0.00 0.00 85 1010.0
20260505214126 82 0 0.0 0.0 0.00 0.00 0.00 85 1010.0
20260505213604 81 0 0.0 0.0 0.00 0.00 0.00 84 1010.0
20260505213042 80 0 0.0 0.0 0.00 0.00 0.00 82 1010.0
20260505212520 82 0 0.0 0.0 0.00 0.00 0.00 87 1010.0
20260505211958 82 0 0.0 0.0 0.00 0.00 0.00 87 1010.0
20260505204814 81 0 0.0 0.0 0.00 0.00 0.00 86 1010.0
20260505204252 81 0 0.0 0.0 0.00 0.00 0.00 83 1010.0
20260505203730 80 0 0.0 0.0 0.00 0.00 0.00 82 1010.0
20260505203208 82 0 0.0 0.0 0.00 0.00 0.00 85 1010.0
20260505202646 82 0 0.0 0.0 0.00 0.00 0.00 85 1010.0
20260505202124 82 0 0.0 0.0 0.00 0.00 0.00 85 1010.0
20260505201602 82 0 0.0 0.0 0.00 0.00 0.00 85 1010.0
20260505201040 82 0 0.0 0.0 0.00 0.00 0.00 85 1010.0
20260505200518 82 0 0.0 0.0 0.00 0.00 0.00 85 1009.0
20260505195956 82 0 0.0 0.0 0.00 0.00 0.00 85 1009.0
20260505195434 82 0 0.0 0.0 0.00 0.00 0.00 85 1009.0
20260505194912 82 0 0.0 0.0 0.00 0.00 0.00 85 1009.0
20260505194350 82 0 0.0 0.0 0.00 0.00 0.00 85 1009.0
20260505193828 82 0 0.0 0.0 0.00 0.00 0.00 85 1009.0
20260505193306 82 0 0.0 0.0 0.00 0.00 0.00 85 1009.0
20260505192744 82 0 0.0 0.0 0.00 0.00 0.00 85 1009.0
20260505192222 82 0 0.0 0.0 0.00 0.00 0.00 85 1009.0
20260505191700 82 0 0.0 0.0 0.00 0.00 0.00 85 1009.0
20260505191138 82 0 0.0 0.0 0.00 0.00 0.00 85 1009.0
20260505190616 82 0 0.0 0.0 0.00 0.00 0.00 85 1009.0
20260505190054 82 0 0.0 0.0 0.00 0.00 0.00 85 1008.0
20260505185532 82 0 0.0 0.0 0.00 0.00 0.00 85 1009.0
20260505185010 82 0 0.0 0.0 0.00 0.00 0.00 85 1009.0
20260505184448 82 0 0.0 0.0 0.00 0.00 0.00 85 1009.0
20260505183926 82 0 0.0 0.0 0.00 0.00 0.00 85 1009.0
20260505183404 82 0 0.0 0.0 0.00 0.00 0.00 85 1009.0
20260505182842 82 0 0.0 0.0 0.00 0.00 0.00 85 1008.0
20260505182320 82 0 0.0 0.0 0.00 0.00 0.00 85 1008.0
20260505181758 82 0 0.0 0.0 0.00 0.00 0.00 84 1008.0
20260505181236 82 0 0.0 0.0 0.00 0.00 0.00 84 1008.0
20260505180714 82 0 0.0 0.0 0.00 0.00 0.00 85 1008.0
20260505180152 82 0 0.0 0.0 0.00 0.00 0.00 85 1008.0
20260505175630 82 0 0.0 0.0 0.00 0.00 0.00 84 1008.0
20260505175108 82 0 0.0 0.0 0.00 0.00 0.00 84 1008.0
20260505174546 82 0 0.0 0.0 0.00 0.00 0.00 84 1009.0
20260505174024 82 0 0.0 0.0 0.00 0.00 0.00 84 1009.0
20260505173502 82 0 0.0 0.0 0.00 0.00 0.00 84 1009.0
20260505172940 82 0 0.0 0.0 0.00 0.00 0.00 84 1009.0
20260505172418 82 0 0.0 0.0 0.00 0.00 0.00 84 1009.0
20260505171856 82 0 0.0 0.0 0.00 0.00 0.00 84 1009.0
20260505171334 82 0 0.0 0.0 0.00 0.00 0.00 84 1009.0
20260505170812 82 0 0.0 0.0 0.00 0.00 0.00 84 1008.0
20260505170250 82 0 0.0 0.0 0.00 0.00 0.00 84 1008.0
20260505165728 82 0 0.0 0.0 0.00 0.00 0.00 84 1008.0
20260505165206 82 0 0.0 0.0 0.00 0.00 0.00 84 1008.0
20260505164644 82 0 0.0 0.0 0.00 0.00 0.00 84 1008.0
20260505164122 82 0 0.0 0.0 0.00 0.00 0.00 84 1009.0
20260505163600 82 0 0.0 0.0 0.00 0.00 0.00 84 1009.0
20260505163038 82 0 0.0 0.0 0.00 0.00 0.00 84 1009.0
20260505162516 82 0 0.0 0.0 0.00 0.00 0.00 84 1009.0
20260505161954 82 0 0.0 0.0 0.00 0.00 0.00 84 1009.0
20260505161432 82 0 0.0 0.0 0.00 0.00 0.00 84 1009.0
20260505160910 82 0 0.0 0.0 0.00 0.00 0.00 84 1009.0
20260505160348 82 0 0.0 0.0 0.00 0.00 0.00 84 1009.0
20260505153136 82 0 0.0 0.0 0.00 0.00 0.00 83 1009.0
20260505152614 82 0 0.0 0.0 0.00 0.00 0.00 83 1009.0
20260505152052 83 0 0.0 0.0 0.00 0.00 0.00 83 1009.0
20260505151530 83 0 0.0 0.0 0.00 0.00 0.00 83 1010.0
20260505151008 83 0 0.0 0.0 0.00 0.00 0.00 82 1010.0
20260505150446 83 0 0.0 0.0 0.00 0.00 0.00 82 1010.0
20260505140518 83 0 0.0 0.0 0.00 0.00 0.00 81 1010.0
20260505125010 84 0 0.0 0.0 0.00 0.00 0.00 77 1010.0
20260505124448 84 0 0.0 0.0 0.00 0.00 0.00 77 1010.0
20260505123926 84 0 0.0 0.0 0.00 0.00 0.00 76 1010.0
20260505123404 84 0 0.0 0.0 0.00 0.00 0.00 77 1010.0
20260505122842 84 0 0.0 0.0 0.00 0.00 0.00 77 1010.0
20260505122320 83 0 0.0 0.0 0.00 0.00 0.00 77 1010.0
20260505121758 83 0 0.0 0.0 0.00 0.00 0.00 77 1010.0
20260505121236 83 0 0.0 0.0 0.00 0.00 0.00 76 1010.0
20260505120714 84 0 0.0 0.0 0.00 0.00 0.00 76 1010.0
20260505120152 84 0 0.0 0.0 0.00 0.00 0.00 75 1010.0
20260505115630 84 0 0.0 0.0 0.00 0.00 0.00 73 1010.0
20260505115108 84 0 0.0 0.0 0.00 0.00 0.00 74 1010.0
20260505114546 84 0 0.0 0.0 0.00 0.00 0.00 74 1010.0
20260505114024 84 0 0.0 0.0 0.00 0.00 0.00 73 1010.0
20260505113502 84 0 0.0 0.0 0.00 0.00 0.00 74 1010.0
20260505112940 84 0 0.0 0.0 0.00 0.00 0.00 75 1010.0
20260505112418 84 0 0.0 0.0 0.00 0.00 0.00 73 1010.0
20260505111856 84 0 0.0 0.0 0.00 0.00 0.00 73 1010.0
20260505111334 84 0 0.0 0.0 0.00 0.00 0.00 74 1010.0
20260505110812 84 0 0.0 0.0 0.00 0.00 0.00 74 1010.0
20260505110250 84 0 0.0 0.0 0.00 0.00 0.00 74 1010.0
20260505101954 84 0 0.0 0.0 0.00 0.00 0.00 74 1009.0
20260505101432 84 0 0.0 0.0 0.00 0.00 0.00 74 1009.0
20260505100909 84 0 0.0 0.0 0.00 0.00 0.00 75 1009.0
20260505100348 83 0 0.0 0.0 0.00 0.00 0.00 79 1008.0
20260505095826 82 0 0.0 0.0 0.00 0.00 0.00 76 1008.0
20260505095305 83 0 0.0 0.0 0.00 0.00 0.00 78 1008.0
20260505094742 83 0 0.0 0.0 0.00 0.00 0.00 79 1008.0
20260505094220 82 0 0.0 0.0 0.00 0.00 0.00 77 1008.0
20260505093657 83 0 0.0 0.0 0.00 0.00 0.00 76 1008.0
20260505093136 83 0 0.0 0.0 0.00 0.00 0.00 78 1008.0
20260505092613 83 0 0.0 0.0 0.00 0.00 0.00 76 1008.0
20260505092052 82 0 0.0 0.0 0.00 0.00 0.00 74 1008.0
20260505091530 83 0 0.0 0.0 0.00 0.00 0.00 77 1008.0
20260505091007 83 0 0.0 0.0 0.00 0.00 0.00 76 1008.0
20260505090445 82 0 0.0 0.0 0.00 0.00 0.00 74 1008.0
20260505085923 83 0 0.0 0.0 0.00 0.00 0.00 77 1008.0
20260505085401 84 0 0.0 0.0 0.00 0.00 0.00 75 1008.0
20260505084839 83 0 0.0 0.0 0.00 0.00 0.00 73 1008.0
20260505084318 84 0 0.0 0.0 0.00 0.00 0.00 77 1008.0
20260505083756 83 0 0.0 0.0 0.00 0.00 0.00 77 1007.0
20260505083234 83 0 0.0 0.0 0.00 0.00 0.00 74 1007.0
20260505082712 83 0 0.0 0.0 0.00 0.00 0.00 76 1007.0
20260505082150 83 0 0.0 0.0 0.00 0.00 0.00 77 1007.0
20260505081627 83 0 0.0 0.0 0.00 0.00 0.00 77 1007.0
20260505081105 83 0 0.0 0.0 0.00 0.00 0.00 75 1007.0
20260505080543 83 0 0.0 0.0 0.00 0.00 0.00 75 1007.0
20260505080021 84 0 0.0 0.0 0.00 0.00 0.00 78 1007.0
20260505075500 84 0 0.0 0.0 0.00 0.00 0.00 77 1007.0
20260505074937 84 0 0.0 0.0 0.00 0.00 0.00 76 1007.0
20260505074415 85 0 0.0 0.0 0.00 0.00 0.00 72 1007.0
20260505073853 85 0 0.0 0.0 0.00 0.00 0.00 68 1007.0
20260505073331 86 0 0.0 0.0 0.00 0.00 0.00 73 1007.0
20260505072810 86 0 0.0 0.0 0.00 0.00 0.00 69 1007.0
20260505072248 86 0 0.0 0.0 0.00 0.00 0.00 66 1007.0
20260505071726 86 0 0.0 0.0 0.00 0.00 0.00 66 1007.0